Wind_Speed
33 40 36 31 27 24 15 13 22 17 16 23 13 11 7 12 3 3 2 4 4 7 9 10 10 11 10 8 10 8 7 10 14 15 15 13 13 13 12 10 8 7 6 5
38 43 36 33 33 24 15 13 19 14 10 14 8 11 16 11 5 10 2 2 3 4 7 9 11 14 13 11 10 10 8 8 11 14 15 14 13 12 12 10 6 4 6 6
37 30 38 38 37 27 22 19 24 17 9 7 9 17 9 9 4 12 6 3 2 3 6 8 11 14 15 15 13 12 11 9 10 12 14 14 14 14 12 10 8 7 8 9
35 35 38 40 40 27 24 19 27 12 13 4 9 7 19 11 5 9 12 3 1 3 4 5 8 9 12 17 15 14 12 12 10 12 14 15 15 14 12 10 9 9 8 9
36 39 43 33 36 31 28 21 21 21 13 17 13 8 20 28 19 12 13 9 3 4 4 2 4 6 8 14 18 16 15 14 13 12 13 14 14 13 12 11 11 10 9 8
42 40 43 41 28 33 28 26 21 30 22 22 18 12 16 19 15 14 15 12 9 8 3 1 3 1 4 9 16 16 16 16 16 13 14 15 15 15 13 12 12 11 11 9
48 49 43 37 34 29 35 29 31 20 24 24 18 20 18 23 11 15 18 13 14 11 9 6 4 4 2 6 10 17 18 18 17 16 14 16 16 16 15 14 13 12 11 8
52 53 50 45 43 36 33 34 35 27 23 20 21 23 18 31 28 5 12 12 18 20 17 13 8 6 5 6 8 14 20 21 19 17 17 16 19 18 19 17 16 14 12 11
50 54 37 45 37 40 41 39 39 28 23 23 23 21 22 30 28 18 17 20 25 12 14 15 11 7 5 8 10 12 20 23 22 20 19 19 19 19 19 19 17 17 15 14
51 40 40 31 40 37 47 33 36 39 35 35 29 25 34 33 30 32 31 29 23 26 27 24 15 12 7 10 11 11 16 25 25 22 21 21 20 21 21 20 20 19 17 16
50 37 32 35 40 45 41 44 36 39 35 34 26 25 18 35 35 23 22 23 32 37 36 25 25 16 11 10 12 14 12 23 26 24 22 22 22 22 23 22 22 21 19 18
40 37 38 39 39 40 40 41 41 41 46 39 31 22 17 20 1 21 26 39 36 37 38 30 27 24 14 13 12 13 13 20 25 26 25 23 22 23 23 24 22 21 20 19
47 50 37 31 28 40 43 40 47 37 36 39 34 38 32 27 20 25 23 38 45 40 38 37 29 29 24 17 14 17 18 17 25 26 26 25 24 21 22 23 24 23 21 20
51 50 49 44 23 35 41 42 38 41 38 36 32 42 25 38 25 26 30 35 37 36 36 27 30 31 30 24 20 17 22 21 27 28 28 27 24 23 22 22 22 23 22 21
46 46 40 45 32 36 39 39 44 40 41 39 29 37 26 32 34 43 36 37 40 41 37 35 39 39 31 27 21 21 21 26 25 29 30 29 27 25 25 24 22 22 22 22
35 38 41 54 38 27 35 37 34 35 36 44 39 31 36 32 35 39 41 37 34 38 40 28 36 34 28 27 21 18 19 23 24 26 30 31 31 29 27 26 25 25 23 23
33 23 30 51 35 28 30 30 33 38 34 32 39 45 47 43 42 39 46 50 39 30 27 30 36 33 32 26 20 21 21 23 23 24 30 31 31 30 28 27 27 27 25 25
39 36 35 35 34 29 30 28 30 34 50 49 53 57 58 50 45 49 53 52 37 33 39 35 38 38 32 27 21 20 20 20 21 21 24 31 30 29 29 29 29 27 27 27
38 36 36 35 34 32 25 35 39 37 42 49 54 57 58 56 54 58 56 58 53 40 39 42 40 39 42 29 26 24 18 21 20 20 21 23 27 30 31 32 31 30 30 30
34 37 41 37 30 28 39 46 47 48 51 54 53 57 59 64 61 67 65 58 37 34 42 44 45 43 40 30 31 27 22 17 19 19 19 19 20 23 27 30 32 33 34 34
34 34 39 38 42 35 41 46 52 51 47 43 68 60 58 60 67 70 64 55 48 42 41 44 45 47 45 36 33 32 29 22 22 23 24 23 21 21 20 24 28 32 36 37
40 35 35 37 44 30 33 40 43 58 48 41 44 43 54 57 60 62 60 58 54 46 41 40 45 50 49 42 38 37 36 31 26 25 22 20 23 24 25 27 28 31 34 36
33 37 29 32 39 41 36 34 33 33 43 45 47 45 43 46 46 50 56 59 55 51 45 39 43 50 52 53 44 42 39 36 33 28 25 24 22 21 22 27 31 35 35 36
27 34 43 38 40 40 42 42 39 38 39 39 42 37 39 42 40 42 46 48 53 56 50 46 43 47 55 57 58 48 46 41 41 36 31 30 28 26 27 31 31 35 35 35
31 36 38 39 45 35 51 51 46 43 43 46 41 36 34 35 40 41 39 42 47 49 51 50 46 46 50 57 60 57 55 49 44 44 40 39 37 35 32 34 34 33 36 37
40 40 44 43 43 49 46 49 51 49 45 44 43 40 39 37 36 35 40 44 44 47 48 48 49 47 48 52 57 62 52 54 48 49 47 47 45 43 41 36 37 37 38 41
Wind_Direction
217 212 208 201 202 162 229 270 260 310 292 256 202 159 220 173 29 148 163 151 199 240 243 241 226 211 208 197 179 180 171 171 187 181 170 172 164 151 150 150 147 139 137 133
218 217 206 205 200 199 231 245 289 285 292 280 301 359 340 4 114 316 42 124 163 218 225 227 220 208 202 196 193 186 190 174 186 195 180 182 177 170 167 166 155 141 123 112
221 215 213 211 205 210 224 233 251 279 348 352 321 318 354 344 23 275 315 243 175 215 205 215 226 223 203 201 196 193 194 194 180 198 196 179 187 186 183 173 166 145 129 122
222 212 216 219 214 209 218 226 231 270 300 349 221 227 261 279 255 280 293 255 187 219 213 203 228 223 217 210 204 194 198 209 195 197 203 193 192 184 187 185 168 155 144 132
218 217 214 209 225 205 211 218 246 233 265 231 268 197 251 227 249 201 264 271 269 242 210 224 242 253 233 225 213 201 201 205 212 206 205 200 194 193 187 182 178 165 153 149
218 219 214 209 213 223 211 229 229 228 219 234 231 227 257 289 301 286 261 272 261 238 230 267 292 315 276 233 216 211 204 209 212 210 216 210 198 195 191 192 187 176 168 165
219 217 215 211 211 221 213 220 225 238 221 231 233 237 248 260 179 214 261 265 263 258 238 231 254 264 251 251 218 212 210 210 214 210 217 218 209 197 195 197 195 189 183 187
222 219 216 210 211 210 220 222 219 234 229 230 234 222 237 270 272 152 203 242 270 225 236 234 217 245 261 258 240 211 214 214 212 208 213 218 214 208 203 199 203 204 204 200
222 221 224 218 212 210 203 222 219 228 234 237 223 245 216 239 261 248 248 254 242 313 266 243 234 228 246 271 264 232 217 215 217 207 212 214 219 218 213 209 209 212 211 211
219 224 218 225 211 212 212 218 215 219 219 233 225 233 210 217 256 257 249 248 227 225 237 260 248 233 237 263 270 280 231 218 216 213 211 215 219 219 215 210 213 215 215 211
220 210 211 219 221 211 212 220 211 218 230 232 228 228 255 220 214 220 215 227 231 233 248 243 254 233 237 251 266 284 257 221 217 218 213 217 218 220 221 216 217 218 219 217
204 209 214 209 217 223 212 218 215 218 206 224 221 226 272 243 211 187 226 223 220 236 246 245 249 252 241 243 254 274 276 219 213 219 217 217 220 220 221 219 218 218 225 223
204 202 198 192 200 214 217 215 214 220 212 208 221 204 245 253 200 215 232 232 241 244 242 244 235 246 247 243 254 260 263 231 211 214 220 220 218 220 222 224 220 217 219 228
219 216 203 195 199 204 214 216 216 214 220 210 216 213 228 265 261 245 234 231 248 252 246 246 229 250 239 247 247 253 257 246 219 214 216 220 220 217 219 224 224 223 220 221
219 218 205 191 182 202 225 221 214 212 216 218 218 215 227 256 232 211 221 231 239 245 242 243 238 231 227 236 240 254 254 238 233 222 214 217 217 219 220 220 223 225 225 223
202 209 197 188 194 212 185 218 221 206 217 213 205 210 225 227 259 245 227 236 232 237 238 236 238 223 218 229 233 243 232 224 232 227 221 218 219 218 220 224 222 223 224 226
200 197 198 198 191 220 211 188 217 205 205 212 211 217 218 218 213 202 232 240 234 238 241 232 220 205 211 218 230 238 226 224 232 229 223 218 219 224 224 225 228 231 229 230
208 198 192 197 195 210 211 194 187 201 207 207 209 213 215 219 232 232 239 245 240 242 240 233 234 223 206 227 222 231 233 231 231 235 230 226 221 220 227 230 230 233 237 239
210 207 202 193 204 207 204 211 213 210 209 213 215 215 214 217 230 231 237 239 241 232 227 234 237 245 251 232 227 231 238 236 231 229 231 229 229 227 229 234 235 234 234 239
212 209 203 186 190 210 203 214 214 214 218 210 215 215 211 215 226 226 230 237 231 231 227 229 233 235 226 219 223 230 233 233 229 223 223 229 232 232 231 234 236 237 237 238
213 208 209 205 192 230 215 214 209 217 219 221 217 217 218 219 223 231 240 246 244 239 237 236 235 236 233 217 229 234 235 232 218 220 221 225 230 234 238 239 239 239 240 241
223 217 212 213 206 234 239 223 238 206 215 230 239 234 227 228 232 237 242 246 246 240 233 231 234 236 237 222 221 230 235 231 226 221 221 222 228 233 241 246 249 245 242 243
206 205 204 209 214 224 230 231 241 222 217 223 229 232 238 238 239 241 243 243 245 245 240 231 231 233 237 238 218 225 229 234 240 238 236 236 237 242 250 250 251 255 252 249
193 215 207 213 223 229 222 232 231 231 233 236 238 238 238 240 241 242 242 244 245 246 244 238 232 231 232 234 239 218 229 223 235 239 247 251 254 260 267 270 265 258 258 254
220 210 207 209 219 227 229 227 231 234 237 243 245 243 243 242 241 243 242 240 241 243 244 242 237 233 235 235 237 242 227 222 229 237 239 248 255 258 261 269 271 263 255 259
224 230 217 216 220 224 236 238 237 238 242 244 245 245 245 243 244 244 241 242 241 240 240 239 238 236 235 237 240 242 244 227 231 237 242 249 253 254 259 266 268 270 258 256
Height
5864 5865 5869 5878 5883 5885 5889 5892 5891 5890 5888 5890 5888 5885 5888 5892 5897 5902 5904 5904 5907 5909 5911 5913 5915 5917 5919 5922 5922 5924 5926 5928 5931 5932 5932 5935 5937 5938 5940 5942 5944 5944 5943 5944
5855 5857 5869 5874 5879 5884 5888 5893 5886 5891 5887 5886 5884 5883 5892 5895 5896 5900 5901 5902 5905 5908 5909 5911 5913 5915 5918 5921 5923 5924 5927 5928 5931 5933 5933 5935 5937 5939 5940 5942 5945 5945 5945 5945
5849 5861 5865 5867 5872 5878 5885 5891 5890 5890 5890 5889 5886 5885 5890 5898 5902 5902 5902 5903 5905 5907 5909 5909 5912 5914 5917 5920 5922 5924 5927 5929 5930 5933 5934 5935 5938 5940 5942 5944 5945 5946 5946 5946
5846 5853 5855 5861 5866 5874 5881 5889 5891 5889 5884 5894 5895 5898 5896 5899 5903 5905 5905 5904 5904 5907 5908 5908 5911 5913 5915 5919 5921 5924 5927 5929 5931 5932 5934 5935 5938 5940 5943 5945 5946 5947 5948 5949
5840 5844 5848 5854 5862 5869 5877 5885 5886 5890 5889 5895 5896 5899 5900 5897 5899 5903 5906 5904 5904 5907 5907 5907 5910 5912 5914 5918 5920 5922 5926 5928 5931 5933 5935 5936 5938 5941 5943 5946 5947 5948 5949 5950
5832 5836 5841 5849 5860 5865 5873 5878 5880 5881 5885 5891 5896 5899 5896 5893 5896 5897 5902 5903 5906 5907 5907 5907 5910 5911 5912 5916 5919 5921 5924 5927 5930 5932 5935 5936 5938 5941 5944 5946 5948 5949 5950 5952
5822 5826 5833 5842 5852 5861 5866 5872 5875 5877 5880 5887 5894 5896 5896 5893 5894 5898 5896 5899 5902 5903 5906 5908 5908 5910 5911 5914 5916 5919 5922 5925 5928 5930 5934 5937 5938 5941 5944 5946 5948 5950 5951 5952
5812 5817 5824 5833 5840 5853 5860 5866 5870 5872 5878 5885 5889 5892 5897 5890 5891 5891 5894 5899 5900 5901 5903 5905 5907 5908 5910 5912 5913 5916 5919 5923 5926 5928 5932 5936 5938 5941 5943 5946 5948 5950 5952 5952
5802 5810 5822 5827 5836 5846 5852 5856 5868 5872 5878 5881 5886 5891 5896 5886 5889 5893 5893 5895 5896 5885 5899 5902 5903 5906 5908 5910 5912 5914 5916 5920 5925 5925 5929 5933 5937 5940 5942 5945 5947 5949 5951 5953
5794 5803 5813 5822 5830 5836 5842 5851 5858 5862 5866 5869 5877 5878 5883 5885 5887 5891 5892 5894 5894 5895 5896 5899 5901 5904 5906 5908 5909 5911 5913 5917 5920 5923 5926 5930 5934 5938 5941 5943 5946 5949 5950 5952
5786 5794 5806 5816 5817 5824 5834 5840 5846 5859 5864 5866 5870 5874 5877 5871 5875 5881 5887 5884 5886 5887 5889 5897 5896 5902 5903 5905 5907 5907 5909 5912 5917 5921 5924 5928 5931 5935 5939 5942 5944 5947 5948 5950
5775 5784 5793 5801 5812 5819 5827 5835 5841 5843 5850 5861 5867 5875 5868 5868 5868 5876 5879 5876 5875 5880 5885 5892 5896 5897 5900 5901 5902 5904 5905 5908 5912 5917 5920 5925 5928 5931 5935 5939 5942 5944 5947 5949
5764 5770 5782 5792 5801 5811 5816 5825 5832 5839 5848 5852 5862 5868 5865 5863 5868 5868 5867 5867 5871 5877 5882 5887 5892 5895 5896 5897 5898 5901 5903 5905 5907 5912 5917 5921 5925 5929 5932 5935 5938 5941 5943 5946
5755 5765 5773 5784 5797 5807 5811 5816 5824 5832 5838 5846 5850 5863 5870 5858 5859 5858 5861 5859 5861 5872 5876 5880 5886 5889 5892 5894 5894 5896 5899 5901 5903 5906 5912 5917 5921 5925 5928 5931 5934 5937 5939 5941
5750 5757 5768 5779 5788 5798 5805 5808 5813 5821 5831 5839 5850 5857 5864 5848 5851 5840 5842 5848 5856 5860 5868 5874 5878 5884 5885 5888 5889 5891 5893 5895 5899 5903 5907 5912 5915 5919 5923 5926 5930 5932 5935 5938
5743 5750 5758 5767 5776 5781 5783 5800 5805 5815 5824 5831 5841 5850 5845 5840 5829 5832 5839 5840 5845 5853 5864 5872 5874 5874 5881 5882 5884 5885 5887 5890 5893 5898 5903 5906 5910 5913 5917 5921 5924 5926 5930 5933
5738 5744 5751 5760 5769 5777 5781 5788 5798 5808 5816 5824 5831 5828 5828 5826 5816 5814 5822 5824 5843 5851 5859 5865 5867 5869 5874 5877 5879 5882 5883 5886 5889 5893 5897 5900 5904 5908 5912 5916 5919 5923 5926 5928
5729 5735 5743 5753 5762 5767 5776 5783 5789 5794 5792 5798 5803 5806 5812 5818 5810 5816 5819 5824 5839 5848 5851 5856 5859 5862 5867 5872 5875 5878 5880 5882 5885 5888 5891 5895 5898 5902 5906 5910 5913 5917 5920 5923
5725 5732 5741 5746 5753 5764 5772 5775 5774 5776 5780 5787 5793 5797 5805 5810 5805 5811 5812 5816 5834 5843 5843 5847 5852 5857 5860 5866 5869 5873 5875 5877 5880 5883 5886 5889 5892 5896 5899 5903 5907 5910 5913 5916
5719 5725 5730 5740 5746 5752 5754 5752 5757 5764 5769 5776 5781 5788 5795 5801 5797 5800 5806 5816 5830 5833 5836 5840 5845 5851 5854 5855 5860 5865 5869 5871 5875 5878 5880 5883 5886 5888 5891 5895 5898 5902 5904 5907
5714 5720 5726 5735 5738 5734 5738 5744 5748 5757 5760 5754 5768 5776 5785 5791 5791 5793 5800 5809 5816 5822 5827 5831 5835 5840 5846 5848 5854 5859 5865 5868 5869 5871 5874 5877 5880 5883 5885 5888 5890 5893 5896 5899
5710 5716 5722 5726 5729 5732 5729 5734 5734 5742 5746 5752 5759 5766 5773 5778 5781 5787 5790 5795 5803 5810 5816 5820 5824 5830 5836 5841 5846 5851 5855 5860 5863 5866 5870 5873 5875 5877 5880 5882 5883 5885 5888 5890
5696 5702 5708 5714 5714 5715 5720 5726 5729 5735 5742 5747 5752 5755 5761 5766 5770 5775 5779 5786 5791 5797 5804 5810 5815 5819 5825 5831 5836 5842 5847 5853 5859 5861 5864 5867 5869 5871 5873 5875 5877 5877 5880 5882
5692 5697 5703 5705 5711 5710 5719 5720 5724 5729 5735 5738 5744 5749 5753 5757 5760 5764 5769 5775 5780 5786 5793 5798 5804 5808 5814 5820 5826 5831 5837 5842 5848 5853 5856 5858 5862 5864 5865 5866 5868 5870 5871 5873
5684 5692 5693 5699 5700 5703 5708 5713 5720 5724 5729 5733 5737 5741 5744 5747 5751 5755 5759 5764 5769 5775 5781 5787 5793 5797 5802 5808 5814 5821 5826 5831 5837 5842 5845 5849 5851 5854 5856 5857 5858 5861 5862 5863
5679 5681 5683 5690 5693 5695 5698 5706 5713 5718 5722 5725 5727 5732 5736 5739 5742 5745 5749 5754 5758 5763 5769 5775 5781 5787 5791 5796 5801 5807 5814 5820 5825 5831 5834 5837 5841 5843 5846 5848 5849 5851 5852 5853